Miscellaneous Local Product
Issued by NWS Hastings, NE

Home | Current Version | Previous Version | Text Only | Print | Product List | Glossary Off
Versions: 1 2 3 4 5 6 7 8 9 10 11 12 13 14 15 16 17 18 19 20 21 22 23 24 25 26 27 28 29 30 31 32 33 34 35 36 37 38 39 40 41 42 43 44 45 46 47 48 49 50

000
AXUS43 KGID 261802
MISGRI

GID CWA HOURLY WEATHER ROUNDUP
NATIONAL WEATHER SERVICE HASTINGS NE
100 PM CDT SUN MAR 26 2017

NOTE: "FAIR" INDICATES FEW OR NO CLOUDS BELOW 12,000 FEET WITH NO
SIGNIFICANT WEATHER AND/OR OBSTRUCTIONS TO VISIBILITY.

...SOUTH CENTRAL NEBRASKA...

CITY           SKY/WX    TMP DP  RH WIND       PRES   REMARKS
GRAND ISLAND   CLOUDY    46  43  89 N6        29.92F
HASTINGS       CLOUDY    47  42  83 N6        29.92F
KEARNEY        CLOUDY    45  39  81 N3        29.92S
ORD            CLOUDY    44  39  82 W5        29.92R
YORK           CLOUDY    45  45 100 N7        29.93S
AURORA         CLOUDY    45  44  95 N7        29.92S
LEXINGTON      CLOUDY    43  39  86 CALM      29.91S
HOLDREGE       CLOUDY    45  40  82 NE6       29.90F
HEBRON         CLOUDY    46  42  88 CALM      29.92F

...NEBRASKA PANHANDLE...

CITY           SKY/WX    TMP DP  RH WIND       PRES   REMARKS
CHADRON        CLOUDY    49  38  65 N13       29.93R
ALLIANCE       CLOUDY    48  37  65 S12       29.90R
SCOTTSBLUFF    CLOUDY    54  35  48 N13       29.91S
SIDNEY         CLOUDY    47  36  65 VRB3      29.91S

...WESTERN AND NORTH CENTRAL NEBRASKA...

CITY           SKY/WX    TMP DP  RH WIND       PRES   REMARKS
VALENTINE      CLOUDY    54  38  54 CALM      29.89F
AINSWORTH      CLOUDY    44  40  86 CALM      29.91S
ONEILL         CLOUDY    41  41 100 CALM      29.93F
BROKEN BOW     PTSUNNY   48  41  76 CALM      29.89F
IMPERIAL       CLOUDY    45  40  82 NE6       29.89F
NORTH PLATTE   CLOUDY    45  39  79 W5        29.91F
MCCOOK         CLOUDY    44  42  93 NE10      29.89F

...EASTERN NEBRASKA...

CITY           SKY/WX    TMP DP  RH WIND       PRES   REMARKS
NORFOLK        CLOUDY    42  39  89 NW5       29.93S FOG
SO SIOUX CITY  CLOUDY    44  38  79 N5        29.94R
TEKAMAH        CLOUDY    45  39  79 NW5       29.94R
COLUMBUS       CLOUDY    43  37  81 N5        29.94F
ALBION         CLOUDY    46  40  81 CALM      29.92F
OMAHA EPPLEY   CLOUDY    45  39  79 NW6       29.93F
OFFUTT AFB     CLOUDY    45  40  82 W6        29.93S
MILLARD        CLOUDY    46  41  82 N3        29.94S
LINCOLN        CLOUDY    44  41  89 NW3       29.95F
NEBRASKA CITY  CLOUDY    43  42  97 NW5       29.93F FOG
BEATRICE       CLOUDY    46  43  89 N5        29.92F
FALLS CITY     CLOUDY    46  41  82 NW8       29.93F

...NORTHERN KANSAS...

CITY           SKY/WX    TMP DP  RH WIND       PRES   REMARKS
GOODLAND       CLOUDY    44  41  89 E10       29.86R
HILL CITY      CLOUDY    46  42  86 E12       29.90S
NORTON         CLOUDY    43  36  75 NE12      29.89F
PHILLIPSBURG   CLOUDY    46  41  81 NE8       29.91F
HAYS             N/A     49  41  74 E17       29.88F
RUSSELL        CLOUDY    48  41  76 NE12      29.87F
CONCORDIA      CLOUDY    47  43  86 E3        29.92S
SALINA         CLOUDY    49  43  80 E7        29.91F
TOPEKA         CLOUDY    50  44  80 CALM      29.94S



USA.gov is the U.S. government's official web portal to all federal, state and local government web resources and services.